Home   Weather   Dieppe   Past weeks

Flag for Canada Past Weather in Dieppe, New Brunswick, Canada — Yesterday and Last 2 Weeks

46 °F

Partly sunny.

Feels Like: 38 °F
Forecast: 37 / 48 °F
Wind: 22 mph from Southwest

Location: Moncton

Current Time: Oct 24, 2016 at 1:10:59 PM

Latest Report: Oct 24, 2016 at 12:00 PM

Visibility: 15 mi

Pressure: 29.54 "Hg

Humidity: 57%

Dew Point: 32 °F

Location of DieppeLocation

Past Weather in Dieppe — Graph


Dieppe Temperature Yesterday

Maximum temperature yesterday: 63 °F (at 12:00 AM)
Minimum temperature yesterday: 41 °F (at 10:00 PM)
Average temperature yesterday: 50 °F

High & Low Weather Summary for the Past Weeks

High70 °F (Oct 19, 2:00 PM)100% (Oct 9, 10:00 PM)30.44 "Hg (Oct 9, 10:00 PM)
Low32 °F (Oct 15, 7:00 AM)44% (Oct 14, 4:00 PM)29.12 "Hg (Oct 22, 6:00 PM)
Average50 °F78%29.95 "Hg
* Reported Oct 9 12:00 PM — Oct 24 12:00 PM, Dieppe, Weather by CustomWeather, © 2016

Note: Actual official high and low records may vary slightly from our data, if they occured in-between our weather recording intervals... More about our weather records


Dieppe Weather History for the Previous 24 Hours

Scroll right to see more
Time TempWeatherWind HumidityBarometerVisibility
12:00 PM
Mon, Oct 24
46 °FPartly sunny.22 mph57%29.54 "Hg15 mi
11:00 AM46 °FPartly sunny.21 mph57%29.55 "Hg15 mi
10:00 AM45 °FPartly sunny.23 mph61%29.55 "Hg15 mi
9:00 AM43 °FPartly sunny.24 mph66%29.53 "Hg15 mi
8:00 AM43 °FPartly sunny.16 mph66%29.52 "Hg15 mi
7:00 AM43 °FPassing clouds.15 mph66%29.50 "Hg15 mi
6:00 AM43 °FPassing clouds.17 mph66%29.47 "Hg15 mi
5:00 AM41 °FPassing clouds.17 mph70%29.46 "Hg15 mi
4:00 AM39 °FPassing clouds.16 mph75%29.46 "Hg15 mi
3:00 AM39 °FPassing clouds.20 mph70%29.44 "Hg15 mi
2:00 AM41 °FPassing clouds.18 mph70%29.41 "Hg15 mi
1:00 AM41 °FPassing clouds.15 mph76%29.41 "Hg15 mi
12:00 AM41 °FSprinkles. Mostly cloudy.22 mph76%29.39 "Hg15 mi
11:00 PM
Sun, Oct 23
41 °FMostly cloudy.22 mph70%29.39 "Hg15 mi
10:00 PM41 °FPartly cloudy.17 mph70%29.38 "Hg15 mi
9:00 PM43 °FMostly cloudy.16 mph71%29.38 "Hg15 mi
8:00 PM43 °FPassing clouds.18 mph71%29.38 "Hg15 mi
7:00 PM43 °FPassing clouds.13 mph76%29.35 "Hg15 mi
6:00 PM43 °FSprinkles. Broken clouds.14 mph81%29.33 "Hg15 mi
5:00 PM45 °FSprinkles. Broken clouds.17 mph71%29.31 "Hg15 mi
4:00 PM46 °FPartly sunny.18 mph66%29.29 "Hg15 mi
3:00 PM48 °FSprinkles. Broken clouds.23 mph62%29.28 "Hg15 mi
2:00 PM50 °FSprinkles. Partly sunny.25 mph67%29.26 "Hg15 mi
1:46 PM46 °FSprinkles. Partly sunny.24 mph82%29.26 "Hg15 mi
1:00 PM50 °FPartly sunny.28 mph71%29.24 "Hg15 mi
Weather by CustomWeather, © 2016

See weather overviewHow to use our weather pages